Wind_Speed
9 11 9 8 11 12 12 11 6 8 8 9 9 7 5 6 5 4 4 4 3 3 4 3 1 2 3 3 3 3 5 4 6 8 9 7 8 7 4 3 3 4 2 1 2 3 3 5 6
10 10 7 7 14 12 12 12 11 11 9 8 6 5 6 5 5 5 4 4 3 2 3 3 2 2 2 3 4 4 4 5 6 7 9 8 8 5 1 2 3 4 3 1 2 4 4 5 5
11 11 6 3 11 10 13 10 11 10 7 8 9 7 6 4 4 4 3 2 2 3 2 4 3 3 2 3 4 2 3 1 2 6 9 10 11 2 2 3 2 4 4 2 3 5 4 5 5
12 14 7 4 9 8 9 13 10 10 9 10 11 10 8 6 6 4 2 2 2 3 3 5 6 5 4 6 6 4 2 3 5 7 9 11 12 2 3 4 2 3 5 3 2 3 4 3 4
7 9 5 4 5 7 11 13 13 12 12 15 16 15 13 12 9 5 4 4 5 5 3 4 5 6 7 5 4 1 1 2 4 5 7 11 12 7 2 2 2 2 3 3 1 2 2 3 3
2 5 6 5 6 9 8 10 12 14 14 14 15 13 12 10 10 6 4 3 4 4 2 4 6 7 6 4 3 4 5 6 4 6 7 9 8 10 3 1 1 2 4 3 2 3 3 3 3
5 4 7 7 11 8 9 13 13 13 13 11 10 11 11 10 9 6 4 5 5 4 4 3 4 5 4 3 2 3 3 4 3 4 4 5 10 11 5 2 1 1 5 3 3 5 4 5 5
9 11 13 11 9 13 13 13 15 15 13 11 11 11 11 11 10 8 6 3 3 4 4 4 3 3 3 3 2 2 2 3 3 6 3 3 5 8 7 2 2 2 4 4 5 5 6 7 5
12 16 16 16 13 16 16 16 16 16 15 14 13 12 13 14 13 10 8 5 2 2 3 5 5 5 4 3 2 2 1 3 3 2 5 3 6 5 2 0 6 2 2 5 6 6 7 6 3
16 18 19 17 15 17 18 19 17 16 17 16 13 14 18 18 16 14 11 8 4 1 2 5 5 4 2 2 1 2 2 2 3 1 6 5 3 6 3 2 3 1 1 4 7 7 8 5 2
14 19 17 17 16 19 20 22 20 17 24 25 21 20 21 21 19 17 15 13 7 3 3 2 4 3 4 3 2 2 2 4 2 6 7 4 3 4 3 3 1 1 3 4 6 6 7 6 3
16 15 16 16 16 19 21 22 21 20 22 23 19 19 20 22 24 22 16 12 10 8 3 2 2 2 2 3 2 1 1 8 8 7 3 3 4 4 2 4 2 3 3 4 6 8 7 6 6
14 14 17 17 14 17 19 21 20 19 21 20 22 24 27 25 24 26 21 11 9 9 7 5 4 3 2 2 3 5 6 8 5 6 5 4 4 5 4 6 6 5 5 4 4 6 7 6 5
10 17 20 19 14 15 16 18 18 16 16 16 18 23 26 26 26 26 27 13 11 12 10 9 7 5 2 2 4 7 9 6 4 4 6 6 3 6 6 6 7 7 6 6 6 7 6 6 9
12 18 19 20 16 10 14 14 15 15 15 16 17 20 22 23 24 26 29 26 19 16 14 10 8 8 2 2 4 6 7 2 2 2 6 8 8 4 5 4 9 7 8 8 8 7 7 6 6
13 15 16 18 18 13 8 10 10 12 12 15 16 17 19 20 18 24 27 26 22 21 18 12 12 12 6 3 6 6 10 8 4 2 2 8 7 5 6 10 8 11 9 9 8 8 8 7 6
11 12 11 13 17 19 11 7 5 9 14 17 16 16 16 22 18 19 19 22 22 20 20 19 17 18 17 13 10 11 9 7 7 5 3 3 7 7 6 9 14 14 11 9 8 9 9 9 8
8 7 5 6 9 16 18 9 3 6 12 14 17 15 9 16 14 10 13 13 18 19 17 17 19 20 22 22 13 15 14 13 12 8 6 5 8 7 10 8 13 14 13 11 10 9 10 11 11
7 3 2 2 2 9 13 13 10 8 10 11 12 11 8 9 8 3 4 11 14 14 14 15 17 19 22 24 21 20 16 16 14 13 10 8 6 6 8 9 10 14 14 16 12 10 11 13 12
10 6 3 4 2 1 6 8 7 6 5 6 11 10 9 6 9 14 6 13 12 12 12 15 15 18 20 19 19 19 17 17 16 15 13 11 8 5 1 2 5 7 13 13 13 13 14 13 12
13 12 8 5 6 7 7 6 6 3 0 4 9 8 4 7 12 18 11 13 13 11 12 15 15 14 14 17 13 13 13 16 14 13 15 14 13 8 4 3 4 6 9 8 13 13 15 14 14
16 14 10 6 9 14 10 3 4 5 3 7 10 4 4 10 15 15 17 11 11 15 10 9 9 11 11 23 9 16 15 12 13 11 11 11 15 14 11 7 7 8 7 9 12 12 15 17 16
16 16 15 10 7 9 8 2 4 3 5 7 4 4 6 9 14 11 8 9 9 13 12 10 5 9 13 15 9 19 22 18 7 8 8 9 11 15 15 11 9 9 9 9 10 16 16 16 18
18 22 20 10 8 9 9 4 2 5 7 13 11 6 5 10 12 9 8 8 8 9 13 10 7 13 10 10 10 17 20 5 10 11 13 11 11 14 14 14 13 9 10 12 12 12 16 14 16
23 23 20 11 10 6 9 8 11 10 10 14 13 10 8 7 10 15 10 8 8 10 13 14 13 13 12 9 10 11 12 8 8 8 14 15 10 14 19 18 15 15 13 10 12 15 13 15 19
14 19 18 16 16 10 11 10 8 13 11 12 11 8 12 14 16 17 11 12 11 15 17 17 17 18 15 14 12 10 11 11 11 12 15 19 19 17 19 22 18 16 17 15 17 18 14 17 19
11 13 14 13 19 17 15 15 13 14 11 12 13 12 14 10 16 27 9 21 21 11 15 18 21 20 19 18 17 15 14 14 14 16 18 22 22 20 21 22 20 20 21 20 20 19 21 24 25
13 11 7 11 17 19 19 19 16 11 11 13 17 17 15 12 16 12 12 12 12 19 23 23 22 21 23 25 23 22 22 24 23 23 24 24 24 24 25 26 28 25 24 25 24 24 23 23 25
10 10 10 13 17 19 20 19 15 17 18 16 20 15 17 15 16 21 22 20 23 25 24 26 24 21 22 24 26 26 28 28 30 32 31 31 31 30 30 31 31 32 30 30 30 30 28 25 22
13 10 10 10 11 11 14 15 16 16 15 16 19 20 22 20 21 23 21 23 30 27 29 30 26 22 24 26 29 30 30 32 34 36 37 36 37 37 38 38 40 36 34 33 32 33 31 28 25
Wind_Direction
30 25 29 10 4 15 44 42 75 40 53 55 55 47 58 80 86 97 93 109 123 166 168 167 153 180 176 122 114 108 78 36 23 24 9 356 351 0 30 349 347 350 286 241 135 100 116 129 133
7 23 59 52 20 18 9 20 29 35 44 32 52 59 36 43 68 81 81 73 102 147 170 204 218 169 157 130 127 104 55 53 33 24 17 13 13 5 20 296 342 340 335 283 170 140 143 133 127
1 24 29 13 25 4 353 360 359 28 25 20 23 41 30 36 68 57 73 88 97 122 167 172 173 166 152 136 141 86 73 63 36 27 18 22 14 3 266 292 293 347 21 2 186 158 145 135 121
28 16 10 314 317 357 22 14 17 31 32 43 49 41 39 44 62 41 354 112 120 115 134 160 170 156 148 139 136 138 84 15 33 24 28 28 26 8 246 279 286 1 26 20 178 158 154 149 146
38 38 20 12 0 35 42 40 43 57 66 63 59 58 61 63 56 48 84 91 93 80 118 150 154 149 151 142 141 133 319 331 0 16 11 33 20 14 296 287 303 336 61 43 169 154 150 173 168
24 1 23 46 33 43 35 45 51 68 65 63 62 60 56 60 66 43 62 74 96 100 96 140 158 161 168 183 230 272 289 303 332 9 -0 31 13 11 330 62 351 359 66 73 147 130 140 170 150
65 57 63 67 72 57 57 66 63 56 62 60 57 51 48 48 60 62 71 82 84 90 96 123 159 164 172 202 222 251 281 297 1 23 10 16 19 28 22 69 72 333 83 105 145 135 155 163 140
80 83 77 84 79 70 59 58 57 51 50 48 49 52 48 41 40 39 12 28 72 73 79 107 122 132 153 186 204 250 311 358 53 40 317 39 297 6 359 353 37 88 107 143 137 142 157 155 142
81 88 81 76 84 71 58 54 53 54 54 53 53 60 64 56 46 36 11 5 19 61 93 87 99 107 134 155 190 231 203 53 92 340 6 82 346 322 247 270 31 19 141 148 134 139 145 145 116
77 80 75 66 75 70 65 64 61 70 63 61 63 72 76 65 56 48 37 25 14 22 75 70 77 83 112 115 192 262 193 135 345 28 185 166 331 303 186 166 47 54 125 144 148 147 140 135 131
83 86 81 62 71 78 73 75 77 81 76 68 74 77 70 64 62 57 52 43 50 73 90 73 48 57 60 45 345 350 214 280 83 133 157 189 235 240 240 196 336 237 160 131 160 179 168 149 157
94 92 84 63 68 74 79 84 86 78 75 72 58 60 62 71 63 54 48 52 54 61 53 89 86 65 38 25 29 5 147 94 80 83 56 169 259 271 234 208 218 257 207 172 167 202 202 184 162
115 114 93 74 77 76 79 86 82 74 68 66 62 57 58 58 56 48 41 53 61 58 52 54 50 43 64 26 322 311 308 97 73 70 58 35 268 263 244 228 247 243 222 168 176 196 203 193 200
125 116 100 80 63 83 81 85 87 71 60 59 60 58 55 55 52 46 39 48 67 61 51 43 40 31 21 3 337 342 39 116 83 69 38 10 330 278 248 251 226 239 233 199 185 193 212 209 216
115 117 103 84 78 74 84 81 79 68 54 46 45 55 53 51 53 51 53 57 59 53 49 52 32 26 134 16 322 353 25 268 171 227 304 346 355 345 222 224 250 237 243 224 200 193 207 227 220
125 113 101 93 84 73 90 96 77 66 43 36 35 46 54 48 49 52 50 41 41 46 43 40 42 42 42 343 319 335 4 60 172 184 285 318 333 352 255 246 258 237 228 228 211 199 200 214 227
123 113 95 93 88 80 69 124 91 59 43 23 19 34 58 44 53 53 47 47 37 30 37 41 35 35 19 4 47 46 340 323 333 195 112 12 327 314 297 273 259 259 235 224 218 217 221 222 216
134 130 120 90 97 104 88 116 101 74 49 13 4 18 48 41 35 72 41 55 55 35 26 29 33 38 40 39 40 26 19 16 9 23 35 348 325 337 314 277 251 246 226 223 229 227 230 235 235
174 145 127 131 35 119 111 112 94 78 44 4 341 360 7 28 360 7 10 54 68 49 32 33 33 33 31 27 25 30 5 356 353 357 6 352 341 304 311 244 244 240 231 230 215 223 232 231 239
195 190 181 217 264 201 154 130 110 102 58 349 341 0 356 340 319 322 178 94 75 61 33 15 19 30 30 32 24 20 14 5 351 344 343 344 356 16 315 95 202 256 259 252 233 240 232 229 230
211 218 230 241 293 289 259 164 159 128 108 325 330 351 346 321 304 272 180 48 44 38 29 10 8 12 18 357 13 13 4 357 355 352 337 331 330 335 354 304 275 266 276 279 252 251 234 239 227
220 238 256 297 315 307 300 209 151 60 321 294 301 295 291 315 300 308 7 29 1 16 12 360 357 354 357 27 18 356 348 330 334 335 334 331 325 317 318 314 314 318 309 293 264 260 244 241 246
232 245 262 272 298 309 309 306 112 110 18 346 329 265 308 310 291 306 355 339 326 360 351 352 311 5 3 3 340 325 312 301 293 311 328 334 330 321 316 313 314 303 297 295 274 260 255 253 250
248 250 258 257 238 274 298 296 338 254 304 340 318 260 285 289 290 293 342 342 316 350 358 358 305 318 329 328 341 354 355 315 272 296 317 314 315 310 317 312 310 314 299 290 289 278 267 249 246
247 248 254 232 239 260 280 295 305 328 312 309 319 243 242 294 274 282 286 326 308 333 344 326 311 309 319 333 325 340 5 348 342 264 292 308 306 306 311 300 299 305 292 310 295 295 284 268 271
233 244 249 248 234 239 266 280 321 326 336 355 5 319 249 249 253 256 274 300 284 324 335 329 316 313 310 315 308 317 325 323 301 308 297 300 300 297 302 314 309 295 299 284 300 292 273 297 294
232 240 251 247 228 241 258 274 295 310 304 342 343 343 336 280 279 261 297 275 267 303 320 320 313 310 303 303 299 302 304 301 296 288 288 293 295 288 287 297 299 302 295 288 291 297 295 289 289
228 239 243 238 234 247 260 276 302 316 318 316 306 315 326 301 308 338 326 336 267 282 300 304 300 292 295 298 301 309 311 308 302 295 292 292 290 288 279 283 287 286 288 293 289 286 286 286 300
226 235 251 258 259 267 278 286 299 306 317 317 313 315 317 305 303 311 316 313 312 301 301 295 298 294 286 288 294 299 302 302 300 296 293 292 289 286 282 279 276 277 278 279 280 285 289 282 291
232 230 252 258 269 279 287 292 298 300 303 304 313 303 306 297 296 292 299 296 305 294 293 295 296 291 288 290 293 296 294 293 289 287 285 283 283 282 278 277 273 270 270 272 273 280 281 280 274
Height
5904 5903 5902 5901 5903 5899 5899 5899 5898 5896 5895 5894 5893 5894 5895 5894 5894 5895 5893 5893 5893 5893 5894 5894 5894 5895 5896 5896 5897 5898 5898 5899 5898 5897 5898 5899 5899 5899 5900 5900 5902 5902 5902 5901 5902 5902 5903 5903 5903
5907 5905 5904 5903 5901 5899 5898 5898 5897 5896 5895 5896 5894 5894 5893 5893 5893 5893 5893 5893 5893 5893 5894 5895 5896 5896 5896 5897 5898 5898 5898 5899 5899 5899 5899 5899 5899 5899 5900 5901 5902 5903 5903 5902 5902 5901 5901 5901 5902
5909 5908 5907 5905 5902 5901 5899 5897 5897 5897 5896 5895 5894 5893 5894 5894 5893 5894 5893 5893 5894 5893 5894 5895 5895 5896 5897 5897 5898 5898 5898 5898 5898 5898 5899 5899 5899 5899 5899 5900 5902 5903 5903 5903 5902 5901 5901 5901 5901
5910 5909 5908 5905 5904 5902 5900 5899 5898 5898 5896 5895 5895 5894 5894 5894 5893 5894 5893 5894 5893 5893 5894 5895 5895 5896 5896 5897 5898 5898 5898 5899 5898 5899 5899 5899 5899 5899 5899 5900 5902 5902 5902 5902 5902 5902 5901 5901 5900
5912 5911 5908 5905 5905 5903 5901 5901 5901 5900 5899 5898 5897 5896 5895 5893 5893 5894 5894 5894 5894 5894 5894 5894 5895 5896 5896 5897 5897 5898 5898 5899 5899 5899 5899 5899 5899 5899 5899 5899 5902 5902 5902 5902 5902 5902 5901 5900 5900
5914 5912 5910 5908 5905 5905 5903 5903 5902 5901 5900 5899 5898 5897 5896 5895 5894 5895 5895 5895 5894 5894 5894 5894 5895 5896 5897 5898 5898 5898 5899 5899 5899 5899 5898 5898 5899 5898 5898 5899 5901 5902 5901 5901 5902 5902 5901 5899 5899
5915 5912 5910 5909 5908 5906 5905 5904 5903 5903 5902 5901 5900 5898 5898 5897 5895 5896 5896 5895 5895 5895 5895 5895 5895 5896 5897 5898 5898 5897 5898 5897 5898 5898 5897 5896 5899 5899 5898 5898 5900 5901 5901 5901 5901 5901 5900 5899 5899
5915 5913 5912 5911 5910 5909 5907 5906 5904 5904 5903 5902 5900 5899 5898 5897 5896 5896 5896 5895 5895 5895 5895 5895 5896 5896 5897 5897 5896 5896 5896 5897 5897 5897 5898 5897 5896 5899 5899 5899 5899 5899 5900 5900 5901 5901 5900 5899 5899
5916 5915 5914 5913 5912 5910 5909 5907 5906 5906 5905 5903 5901 5900 5899 5898 5897 5896 5896 5895 5895 5895 5895 5895 5895 5895 5896 5896 5895 5894 5894 5896 5895 5895 5896 5896 5896 5898 5899 5899 5899 5900 5900 5900 5900 5901 5900 5900 5900
5916 5916 5915 5916 5914 5912 5911 5910 5910 5909 5907 5905 5904 5902 5901 5899 5898 5897 5897 5896 5895 5895 5896 5896 5896 5896 5895 5895 5894 5893 5893 5894 5893 5892 5894 5894 5896 5897 5898 5898 5898 5899 5900 5899 5899 5900 5900 5901 5900
5918 5917 5917 5918 5916 5914 5913 5913 5912 5911 5909 5909 5908 5906 5903 5900 5899 5899 5898 5897 5896 5897 5897 5897 5897 5896 5895 5894 5893 5892 5893 5893 5892 5892 5893 5895 5895 5895 5896 5897 5898 5898 5899 5899 5899 5899 5900 5900 5901
5920 5920 5919 5920 5918 5917 5916 5916 5915 5915 5913 5912 5912 5909 5906 5903 5901 5900 5899 5898 5898 5898 5899 5898 5897 5896 5895 5894 5893 5891 5890 5892 5893 5893 5893 5894 5895 5895 5895 5896 5897 5897 5898 5898 5898 5898 5899 5899 5900
5922 5922 5921 5921 5921 5920 5919 5918 5918 5917 5916 5915 5913 5910 5908 5906 5904 5902 5900 5899 5900 5900 5899 5899 5898 5897 5896 5894 5892 5890 5886 5891 5892 5892 5893 5893 5894 5895 5895 5896 5896 5896 5896 5897 5897 5897 5898 5899 5899
5926 5924 5923 5923 5923 5922 5922 5922 5921 5921 5919 5918 5915 5913 5911 5909 5907 5905 5902 5899 5901 5901 5900 5899 5898 5897 5896 5895 5892 5890 5884 5891 5892 5893 5893 5893 5893 5893 5893 5894 5895 5895 5895 5895 5896 5897 5897 5898 5899
5928 5927 5925 5925 5925 5925 5924 5925 5923 5923 5922 5920 5918 5916 5914 5912 5910 5908 5907 5905 5904 5903 5901 5901 5899 5897 5895 5895 5892 5891 5890 5890 5892 5892 5893 5892 5891 5891 5892 5893 5893 5895 5895 5894 5894 5896 5897 5897 5898
5928 5928 5927 5926 5926 5927 5927 5927 5926 5925 5924 5923 5921 5919 5916 5914 5911 5910 5909 5907 5905 5903 5901 5901 5901 5899 5898 5895 5894 5892 5890 5891 5892 5891 5891 5891 5890 5890 5891 5891 5892 5893 5893 5893 5893 5895 5896 5897 5898
5929 5929 5928 5928 5927 5927 5928 5928 5928 5927 5926 5924 5923 5923 5919 5916 5914 5913 5912 5910 5908 5906 5905 5903 5902 5901 5900 5896 5896 5893 5894 5890 5889 5889 5889 5889 5890 5888 5888 5890 5890 5891 5891 5892 5892 5893 5895 5896 5896
5928 5929 5929 5929 5930 5928 5929 5930 5931 5929 5928 5926 5925 5923 5922 5919 5916 5913 5912 5910 5909 5909 5907 5905 5905 5904 5903 5902 5899 5896 5894 5894 5892 5889 5889 5888 5888 5887 5886 5886 5887 5889 5890 5891 5891 5893 5894 5894 5895
5928 5929 5930 5930 5930 5930 5929 5930 5931 5931 5929 5928 5926 5924 5924 5921 5917 5915 5915 5912 5907 5907 5907 5906 5905 5906 5906 5905 5904 5902 5899 5897 5895 5892 5889 5888 5887 5886 5885 5883 5884 5888 5889 5889 5889 5890 5891 5893 5894
5928 5929 5930 5930 5930 5930 5930 5930 5930 5930 5930 5929 5927 5925 5924 5921 5918 5915 5911 5907 5908 5906 5907 5908 5907 5907 5905 5904 5902 5902 5901 5900 5898 5896 5894 5892 5888 5886 5885 5884 5886 5888 5888 5887 5887 5888 5889 5890 5892
5927 5928 5928 5929 5929 5928 5929 5929 5929 5930 5929 5929 5928 5926 5924 5920 5916 5907 5898 5910 5909 5909 5907 5908 5909 5908 5905 5903 5901 5899 5899 5898 5896 5896 5896 5894 5892 5888 5886 5887 5886 5885 5885 5886 5886 5886 5887 5888 5889
5926 5926 5927 5927 5927 5927 5927 5929 5929 5929 5928 5927 5926 5926 5924 5920 5916 5913 5907 5911 5912 5911 5908 5908 5910 5909 5906 5902 5901 5899 5897 5896 5895 5893 5893 5893 5893 5892 5889 5886 5886 5885 5883 5883 5884 5885 5885 5886 5887
5924 5925 5925 5926 5926 5926 5926 5927 5928 5928 5927 5926 5925 5924 5923 5920 5916 5917 5916 5915 5914 5913 5910 5907 5910 5910 5907 5903 5900 5896 5893 5893 5893 5893 5892 5891 5892 5891 5890 5887 5885 5885 5883 5881 5882 5883 5883 5883 5885
5923 5923 5923 5924 5925 5925 5924 5926 5926 5926 5925 5924 5923 5922 5921 5919 5916 5916 5915 5915 5914 5913 5909 5910 5909 5907 5906 5902 5899 5896 5892 5890 5893 5892 5891 5889 5889 5890 5889 5887 5884 5881 5880 5880 5880 5881 5881 5880 5881
5920 5921 5921 5923 5923 5924 5924 5925 5924 5924 5923 5921 5919 5919 5918 5916 5914 5914 5915 5913 5912 5911 5911 5909 5908 5906 5903 5900 5898 5895 5893 5892 5890 5891 5890 5889 5885 5886 5886 5884 5881 5880 5878 5877 5876 5877 5878 5879 5879
5917 5918 5919 5920 5921 5922 5922 5923 5923 5922 5920 5919 5915 5914 5915 5913 5911 5911 5915 5914 5913 5911 5908 5907 5905 5902 5899 5897 5895 5893 5891 5890 5889 5888 5887 5885 5883 5881 5881 5880 5878 5876 5876 5874 5872 5872 5872 5874 5873
5915 5916 5916 5916 5918 5919 5920 5920 5921 5920 5919 5917 5912 5912 5910 5910 5907 5906 5911 5909 5911 5908 5907 5905 5901 5897 5896 5894 5892 5889 5887 5887 5886 5885 5884 5882 5879 5877 5877 5876 5874 5872 5871 5870 5868 5865 5866 5866 5865
5913 5914 5914 5914 5915 5917 5917 5917 5918 5917 5916 5915 5910 5909 5908 5908 5904 5902 5901 5904 5906 5903 5901 5900 5898 5895 5891 5889 5887 5883 5881 5878 5879 5878 5877 5875 5874 5871 5870 5869 5868 5865 5864 5864 5862 5860 5858 5859 5857
5911 5911 5912 5913 5913 5914 5914 5914 5914 5913 5913 5911 5907 5906 5903 5902 5899 5898 5898 5898 5899 5896 5895 5895 5893 5889 5887 5884 5881 5878 5875 5872 5870 5869 5866 5865 5865 5865 5863 5860 5860 5859 5857 5856 5855 5852 5852 5852 5852
5908 5909 5910 5911 5911 5910 5910 5911 5910 5909 5909 5907 5904 5900 5899 5898 5898 5895 5894 5894 5893 5890 5889 5888 5886 5883 5881 5878 5876 5871 5868 5864 5861 5859 5856 5855 5855 5855 5855 5852 5851 5850 5849 5848 5847 5845 5845 5845 5846